Content
SEND FEEDBACK

Daily
Averages
Monthly
Summary
United States of America

NEW YORK - CENTRAL PARK, NEW YORK


Home > North America > United States > New York
Elevation: 14 feet     Latitude: 40 47N     Longitude: 073 58W

WEATHER
 
SELECT A DAY
Number of Records: 148,168;   Date Range: 11/1/95 - 8/12/14
 
SHARE

PRINT THIS DATA

[ ← Previous Day ]
WEATHER ALMANAC - JULY 12, 2013
[ Next Day → ]
[ °C ]   °F
Weather ElementAverageHighLow
Temperature72.3 °F75.9 °F (1:51 am)68 °F (10:51 pm)
Dewpoint65.3 °F69.1 °F (6:51 pm)60.1 °F (4:51 am)
Humidity79.4 %96 % (11:51 pm)60 % (1:51 am)
Barometer30.05 in30.12 in (10:04 pm)29.94 in (1:51 am)
Wind Speed9.8 mph17.3 mph (10:51 am)
Wind Gust25.3 mph (9:31 am)
Weather ElementAverage
Visibility6.4 mi
Wind DirectionENE (56.3 °)

Weather ElementTotal
Precipitation0.49 in
Cooling Degree Days7 (Base 65)
Growing Degree Days22 (Base 50)
Averaged from 35 records on July 12, 2013
WEATHER CONDITIONS BREAKOUT
WIND DIRECTION BREAKOUT
WEATHER BY HOUR - JULY 12, 2013
[ °C ]   °F
Local TimeTemperatureDewpointHumidityBarometerVisibilityWind DirectionWind SpeedGust SpeedPrecipitationEventsConditions
1:51 AM75.9 °F61.0 °F60 %29.94 in10.0 miNorth (10°)6.9 mphClear
2:51 AM73.9 °F62.1 °F66 %29.94 in10.0 miNorthClear
3:51 AM75.0 °F61.0 °F62 %29.95 in10.0 miNE (50°)8.1 mphOvercast
4:51 AM73.9 °F60.1 °F62 %29.96 in10.0 miVariable6.9 mphMostly Cloudy
5:51 AM73.0 °F61.0 °F66 %29.97 in10.0 miVariable5.8 mphClear
6:51 AM73.0 °F60.1 °F64 %30.00 in10.0 miNE (40°)8.1 mphPartly Cloudy
7:51 AM73.0 °F61.0 °F66 %30.00 in10.0 miENE (60°)9.2 mphClear
8:51 AM73.9 °F62.1 °F66 %30.01 in10.0 miNE (50°)9.2 mphScattered Clouds
9:31 AM73.9 °F61.0 °F64 %30.05 in10.0 miENE (70°)16.1 mph25.3 mphMostly Cloudy
9:51 AM75.0 °F62.1 °F64 %30.02 in10.0 miENE (70°)15.0 mph20.7 mphOvercast
10:51 AM75.0 °F62.1 °F64 %30.04 in10.0 miENE (70°)17.3 mph23.0 mphOvercast
11:51 AM75.0 °F64.0 °F69 %30.04 in9.0 miENE (70°)13.8 mph19.6 mphOvercast
12:51 PM75.0 °F64.0 °F69 %30.04 in8.0 miENE (70°)13.8 mph20.7 mphOvercast
1:51 PM73.9 °F64.9 °F73 %30.04 in8.0 miENE (60°)10.4 mph17.3 mphOvercast
2:51 PM73.0 °F66.9 °F81 %30.04 in7.0 miVariable5.8 mph0.00 inRainLight Rain
3:27 PM73.9 °F66.9 °F79 %30.07 in8.0 miENE (60°)8.1 mph0.01 inOvercast
3:51 PM73.0 °F66.0 °F79 %30.04 in6.0 miEast (80°)8.1 mph0.01 inRainLight Rain
4:51 PM73.9 °F66.0 °F76 %30.04 in8.0 miENE (70°)10.4 mph0.01 inOvercast
5:51 PM75.0 °F66.9 °F76 %30.04 in7.0 miENE (60°)6.9 mph0.00 inRainLight Rain
6:51 PM73.0 °F69.1 °F87 %30.05 in6.0 miENE (70°)6.9 mph0.00 inOvercast
7:29 PM73.0 °F69.1 °F87 %30.08 in4.0 miEast (90°)6.9 mph0.00 inRainLight Rain
7:51 PM72.0 °F69.1 °F91 %30.06 in5.0 miEast (90°)4.6 mph0.01 inRainLight Rain
8:03 PM72.0 °F69.1 °F91 %30.09 in3.0 miVariable5.8 mph0.00 inRainLight Rain
8:12 PM71.1 °F69.1 °F93 %30.10 in2.5 miENE (70°)9.2 mph0.02 inRainLight Rain
8:21 PM71.1 °F68.0 °F90 %30.10 in4.0 miEast (90°)11.5 mph19.6 mph0.03 inRainLight Rain
8:31 PM70.0 °F68.0 °F93 %30.10 in2.5 miEast (80°)8.1 mph17.3 mph0.04 inRainRain
8:39 PM70.0 °F68.0 °F93 %30.10 in2.0 miEast (80°)12.7 mph18.4 mph0.06 inRainRain
8:46 PM69.8 °F68.0 °F94 %30.10 in1.5 miENE (70°)12.7 mph20.7 mph0.09 inRainHeavy Rain
8:51 PM69.1 °F66.9 °F93 %30.08 in1.5 miEast (80°)11.5 mph20.7 mph0.11 inRainRain
8:58 PM69.1 °F66.9 °F93 %30.10 in3.0 miEast (80°)12.7 mph21.9 mph0.01 inRainLight Rain
9:51 PM69.1 °F66.9 °F93 %30.09 in5.0 miENE (70°)9.2 mph19.6 mph0.02 inOvercast
10:04 PM69.1 °F66.9 °F93 %30.12 in2.5 miEast (80°)8.1 mph19.6 mph0.01 inRainLight Rain
10:12 PM69.1 °F66.9 °F93 %30.12 in4.0 miENE (60°)12.7 mph20.7 mph0.01 inRainLight Rain
10:51 PM68.0 °F66.0 °F93 %30.10 in4.0 miENE (70°)13.8 mph25.3 mph0.02 inRainLight Rain
11:51 PM68.0 °F66.9 °F96 %30.11 in4.0 miVariable5.8 mph0.03 inRainLight Rain
Hourly data recorded from KNYC, located miles away from New York - Central Park, New York







STORIES FROM OUR PARTNERS